Weather in Myshako

Russia / Krasnodar Krai     44°39′26″N   37°45′37″E
temp.,
°C
wind,
m/s
gust,
m/s
humid.,
%
clouds,
%
prec.,
mm/h
press.,
hPa
HPBL,
m
26 october, tue
tue2600:00+4nne38745 0.0 1032319
03:00+3nne36765 0.0 1032237
06:00+2nne39790 0.0 1031327
09:00+5ne411732 0.0 1031484
12:00+9ene46572 0.0 1030714
15:00+10ene56512 0.0 1029821
18:00+7ene39650 0.0 1029432
21:00+5ne36710 0.0 1029219
27 october, wed
wed2700:00+4ne33770 0.0 102894
03:00+3nne23790 0.0 102778
06:00+3nne22820 0.0 102652
09:00+6nne22650 0.0 1026102
12:00+12nw11390 0.0 1025434
15:00+14nnw11360 0.0 1023687
18:00+9n12580 0.0 102457
21:00+8nnw12650 0.0 102452
28 october, thu
thu2800:00+7nnw12720 0.0 102448
03:00+6n22680 0.0 102548
06:00+6nne227569 0.0 102539
09:00+8nne226159 0.0 1027133
12:00+12nne2243100 0.0 1026663
15:00+12nne2342100 0.0 1025725
18:00+9nne2256100 0.0 1026119
21:00+7nne22666 0.0 102658
29 october, fri
fri2900:00+7nne12645 0.0 102642
03:00+7nne11635 0.0 102631
06:00+7nne11679 0.0 102631
09:00+10n115943 0.0 102670
12:00+14nw12477 0.0 1026703
15:00+15nnw125072 0.0 1025913
18:00+11nne23715 0.0 1027100
21:00+10nne22835 0.0 102760
30 october, sat
sat3000:00+9nne23872 0.0 102866
03:00+8nne23880 0.0 102868
06:00+8ne310840 0.0 1029294
09:00+10ne412710 0.0 1029494
12:00+13ene510580 0.0 1029687
15:00+15ene610560 0.0 1028914
18:00+13ene613610 0.0 1028683
21:00+11ne49700 0.0 1028334